| time (UTC) | temp C | wind direction | speed KPH | gust KPH | rain 1hr cm | rain 24hr cm | rain mn cm | humidity % | barometer mb |
| 20260502163903 | 17 | 36 | 1.6 | 6.4 | 0.00 | 0.00 | 0.00 | 63 | 1012.9 |
| 20260502162909 | 17 | 350 | 1.6 | 6.4 | 0.00 | 0.00 | 0.00 | 62 | 1013.0 |
| 20260502162405 | 17 | 328 | 3.2 | 6.4 | 0.00 | 0.00 | 0.00 | 61 | 1013.1 |
| 20260502161413 | 18 | 336 | 0.0 | 4.8 | 0.00 | 0.00 | 0.00 | 58 | 1013.2 |
| 20260502160415 | 18 | 350 | 0.0 | 4.8 | 0.00 | 0.00 | 0.00 | 58 | 1013.4 |
| 20260502151405 | 18 | 42 | 0.0 | 6.4 | 0.00 | 0.00 | 0.00 | 60 | 1014.0 |
| 20260502150413 | 18 | 31 | 3.2 | 6.4 | 0.00 | 0.00 | 0.00 | 58 | 1014.1 |
| 20260502130407 | 16 | 110 | 1.6 | 12.9 | 0.00 | 0.00 | 0.00 | 64 | 1014.9 |
| 20260502123413 | 16 | 87 | 0.0 | 6.4 | 0.00 | 0.00 | 0.00 | 67 | 1015.6 |
| 20260502122415 | 16 | 40 | 3.2 | 9.7 | 0.00 | 0.00 | 0.00 | 68 | 1015.6 |
| 20260502121858 | 16 | 67 | 1.6 | 8.0 | 0.00 | 0.00 | 0.00 | 69 | 1016.0 |
| 20260502120904 | 15 | 231 | 1.6 | 11.3 | 0.00 | 0.00 | 0.00 | 69 | 1015.9 |
| 20260502115916 | 15 | 250 | 1.6 | 6.4 | 0.00 | 0.00 | 0.00 | 69 | 1015.9 |
| 20260502115400 | 15 | 170 | 3.2 | 9.7 | 0.00 | 0.00 | 0.00 | 68 | 1015.9 |
| 20260502114401 | 15 | 35 | 1.6 | 8.0 | 0.00 | 0.00 | 0.00 | 69 | 1016.2 |
| 20260502113413 | 15 | 196 | 4.8 | 9.7 | 0.00 | 0.00 | 0.00 | 67 | 1016.0 |
| 20260502112409 | 16 | 56 | 0.0 | 6.4 | 0.00 | 0.00 | 0.00 | 67 | 1016.5 |
| 20260502111416 | 16 | 72 | 0.0 | 9.7 | 0.00 | 0.00 | 0.00 | 70 | 1016.2 |
| 20260502110356 | 16 | 10 | 1.6 | 9.7 | 0.00 | 0.00 | 0.00 | 67 | 1016.0 |
| 20260502105359 | 16 | 316 | 1.6 | 8.0 | 0.00 | 0.00 | 0.00 | 67 | 1016.1 |
| 20260502104405 | 15 | 44 | 1.6 | 9.7 | 0.00 | 0.00 | 0.00 | 70 | 1016.4 |
| 20260502103409 | 15 | 136 | 1.6 | 12.9 | 0.00 | 0.00 | 0.00 | 71 | 1016.3 |
| 20260502102409 | 15 | 142 | 4.8 | 12.9 | 0.00 | 0.00 | 0.00 | 70 | 1016.4 |
| 20260502101413 | 15 | 50 | 1.6 | 9.7 | 0.00 | 0.00 | 0.00 | 71 | 1016.4 |
| 20260502100414 | 15 | 197 | 1.6 | 6.4 | 0.00 | 0.00 | 0.00 | 72 | 1016.3 |
| 20260502090911 | 13 | 183 | 1.6 | 11.3 | 0.00 | 0.00 | 0.00 | 75 | 1016.4 |
| 20260502090408 | 13 | 141 | 1.6 | 9.7 | 0.00 | 0.00 | 0.00 | 75 | 1016.5 |
| 20260502071411 | 11 | 134 | 0.0 | 11.3 | 0.00 | 0.00 | 0.00 | 85 | 1016.6 |
| 20260502070530 | 10 | 183 | 0.0 | 4.8 | 0.00 | 0.00 | 0.00 | 87 | 1016.2 |
| 20260502044412 | 10 | 187 | 0.0 | 4.8 | 0.00 | 0.00 | 0.00 | 91 | 1016.7 |
| 20260502043420 | 10 | 153 | 0.0 | 1.6 | 0.00 | 0.00 | 0.00 | 91 | 1016.7 |
| 20260502042412 | 10 | 153 | 0.0 | 0.0 | 0.00 | 0.00 | 0.00 | 91 | 1016.6 |
| 20260502041415 | 10 | 153 | 0.0 | 0.0 | 0.00 | 0.00 | 0.00 | 91 | 1016.6 |
| 20260502040913 | 10 | 153 | 0.0 | 0.0 | 0.00 | 0.00 | 0.00 | 91 | 1016.7 |
| 20260502040411 | 10 | 153 | 0.0 | 0.0 | 0.00 | 0.00 | 0.00 | 91 | 1016.7 |
| 20260502034917 | 9 | 153 | 0.0 | 6.4 | 0.00 | 0.00 | 0.00 | 92 | 1016.8 |
| 20260502033921 | 9 | 158 | 0.0 | 1.6 | 0.00 | 0.00 | 0.00 | 92 | 1016.8 |
| 20260502032923 | 8 | 158 | 0.0 | 3.2 | 0.00 | 0.00 | 0.00 | 92 | 1016.7 |
| 20260502032406 | 8 | 158 | 0.0 | 0.0 | 0.00 | 0.00 | 0.00 | 92 | 1016.7 |
| 20260502031408 | 8 | 158 | 0.0 | 0.0 | 0.00 | 0.00 | 0.00 | 91 | 1016.7 |
| 20260502030412 | 8 | 158 | 0.0 | 0.0 | 0.00 | 0.00 | 0.00 | 91 | 1016.8 |
| 20260502025412 | 8 | 158 | 0.0 | 0.0 | 0.00 | 0.00 | 0.00 | 90 | 1016.7 |
| 20260502024420 | 8 | 158 | 0.0 | 0.0 | 0.00 | 0.00 | 0.00 | 90 | 1016.9 |
| 20260502023425 | 8 | 158 | 0.0 | 0.0 | 0.00 | 0.00 | 0.00 | 89 | 1016.9 |
| 20260502022906 | 8 | 158 | 0.0 | 0.0 | 0.00 | 0.00 | 0.00 | 89 | 1016.9 |
| 20260502021908 | 8 | 158 | 0.0 | 0.0 | 0.00 | 0.00 | 0.00 | 87 | 1016.8 |
| 20260502020911 | 8 | 158 | 0.0 | 0.0 | 0.00 | 0.00 | 0.00 | 87 | 1016.9 |
| 20260502015919 | 9 | 158 | 0.0 | 0.0 | 0.00 | 0.00 | 0.00 | 87 | 1016.9 |
| 20260502014922 | 9 | 158 | 0.0 | 3.2 | 0.00 | 0.00 | 0.00 | 87 | 1016.8 |
| 20260502013923 | 10 | 290 | 0.0 | 3.2 | 0.00 | 0.00 | 0.00 | 87 | 1017.1 |
| 20260502012911 | 10 | 142 | 0.0 | 3.2 | 0.00 | 0.00 | 0.00 | 87 | 1017.0 |
| 20260502011920 | 10 | 142 | 0.0 | 1.6 | 0.00 | 0.00 | 0.00 | 88 | 1017.3 |
| 20260502010949 | 10 | 24 | 0.0 | 4.8 | 0.00 | 0.00 | 0.00 | 88 | 1017.4 |
| 20260502005906 | 10 | 360 | 0.0 | 3.2 | 0.00 | 0.00 | 0.00 | 88 | 1017.5 |
| 20260502004909 | 10 | 360 | 0.0 | 3.2 | 0.00 | 0.00 | 0.00 | 87 | 1017.5 |
| 20260502003912 | 11 | 360 | 0.0 | 3.2 | 0.00 | 0.00 | 0.00 | 87 | 1017.6 |
| 20260502002925 | 11 | 319 | 0.0 | 4.8 | 0.00 | 0.00 | 0.00 | 87 | 1017.7 |
| 20260502001905 | 11 | 133 | 0.0 | 3.2 | 0.00 | 0.00 | 0.00 | 87 | 1017.8 |
| 20260502000910 | 11 | 194 | 0.0 | 0.0 | 0.00 | 0.00 | 0.00 | 87 | 1017.8 |
| 20260501235914 | 11 | 194 | 0.0 | 4.8 | 0.00 | 0.00 | 0.00 | 87 | 1017.6 |
| 20260501234921 | 11 | 185 | 0.0 | 3.2 | 0.00 | 0.00 | 0.00 | 87 | 1017.8 |
| 20260501234412 | 11 | 328 | 0.0 | 1.6 | 0.00 | 0.00 | 0.00 | 87 | 1017.8 |
| 20260501233413 | 11 | 63 | 0.0 | 1.6 | 0.00 | 0.00 | 0.00 | 87 | 1017.8 |
| 20260501232913 | 11 | 101 | 0.0 | 3.2 | 0.00 | 0.00 | 0.00 | 87 | 1017.7 |
| 20260501232414 | 11 | 101 | 0.0 | 4.8 | 0.00 | 0.00 | 0.00 | 87 | 1017.9 |
| 20260501231559 | 12 | 167 | 0.0 | 3.2 | 0.00 | 0.00 | 0.00 | 86 | 1017.8 |
| 20260501230906 | 12 | 212 | 0.0 | 4.8 | 0.00 | 0.00 | 0.00 | 86 | 1017.8 |
| 20260501225936 | 12 | 70 | 0.0 | 6.4 | 0.00 | 0.00 | 0.00 | 86 | 1017.7 |
| 20260501224909 | 12 | 106 | 0.0 | 4.8 | 0.00 | 0.00 | 0.00 | 86 | 1017.8 |
| 20260501223910 | 12 | 10 | 0.0 | 4.8 | 0.00 | 0.00 | 0.00 | 86 | 1017.7 |
| 20260501222913 | 12 | 99 | 0.0 | 6.4 | 0.00 | 0.00 | 0.00 | 85 | 1017.8 |
| 20260501222411 | 12 | 78 | 0.0 | 3.2 | 0.00 | 0.00 | 0.00 | 85 | 1017.8 |
| 20260501221418 | 12 | 316 | 0.0 | 4.8 | 0.00 | 0.00 | 0.00 | 85 | 1017.8 |
| 20260501220420 | 12 | 88 | 0.0 | 3.2 | 0.00 | 0.00 | 0.00 | 85 | 1017.8 |
| 20260501215415 | 12 | 87 | 1.6 | 6.4 | 0.00 | 0.00 | 0.00 | 85 | 1017.8 |
| 20260501214907 | 12 | 145 | 0.0 | 11.3 | 0.00 | 0.00 | 0.00 | 84 | 1017.9 |
| 20260501213913 | 12 | 37 | 0.0 | 6.4 | 0.00 | 0.00 | 0.00 | 84 | 1017.9 |
| 20260501212914 | 12 | 114 | 0.0 | 9.7 | 0.00 | 0.00 | 0.00 | 83 | 1017.8 |
| 20260501211915 | 12 | 271 | 1.6 | 8.0 | 0.00 | 0.00 | 0.00 | 82 | 1017.7 |
| 20260501210917 | 12 | 93 | 1.6 | 8.0 | 0.00 | 0.00 | 0.00 | 81 | 1017.7 |
| 20260501205924 | 13 | 177 | 3.2 | 11.3 | 0.00 | 0.00 | 0.00 | 80 | 1017.8 |
| 20260501204925 | 13 | 200 | 1.6 | 9.7 | 0.00 | 0.00 | 0.00 | 79 | 1017.6 |
| 20260501204407 | 13 | 139 | 0.0 | 8.0 | 0.00 | 0.00 | 0.00 | 78 | 1017.4 |
| 20260501203408 | 13 | 196 | 0.0 | 4.8 | 0.00 | 0.00 | 0.00 | 77 | 1017.5 |
| 20260501202909 | 13 | 183 | 0.0 | 4.8 | 0.00 | 0.00 | 0.00 | 77 | 1017.5 |
| 20260501201908 | 13 | 202 | 0.0 | 6.4 | 0.00 | 0.00 | 0.00 | 76 | 1017.5 |
| 20260501200915 | 14 | 113 | 0.0 | 4.8 | 0.00 | 0.00 | 0.00 | 75 | 1017.5 |
| 20260501200410 | 14 | 98 | 0.0 | 6.4 | 0.00 | 0.00 | 0.00 | 75 | 1017.5 |
| 20260501194918 | 14 | 125 | 0.0 | 11.3 | 0.00 | 0.00 | 0.00 | 74 | 1017.6 |
| 20260501193920 | 14 | 245 | 1.6 | 8.0 | 0.00 | 0.00 | 0.00 | 73 | 1017.6 |
| 20260501192921 | 15 | 150 | 0.0 | 3.2 | 0.00 | 0.00 | 0.00 | 72 | 1017.4 |
| 20260501191924 | 15 | 135 | 0.0 | 6.4 | 0.00 | 0.00 | 0.00 | 72 | 1017.6 |
| 20260501191405 | 15 | 53 | 1.6 | 8.0 | 0.00 | 0.00 | 0.00 | 71 | 1017.6 |
| 20260501190412 | 15 | 104 | 1.6 | 6.4 | 0.00 | 0.00 | 0.00 | 71 | 1017.4 |
| 20260501185414 | 15 | 110 | 4.8 | 11.3 | 0.00 | 0.00 | 0.00 | 70 | 1017.2 |
| 20260501184420 | 16 | 139 | 1.6 | 8.0 | 0.00 | 0.00 | 0.00 | 70 | 1017.3 |
| 20260501182924 | 16 | 93 | 1.6 | 9.7 | 0.00 | 0.00 | 0.00 | 69 | 1017.3 |
| 20260501182405 | 16 | 112 | 0.0 | 4.8 | 0.00 | 0.00 | 0.00 | 68 | 1017.3 |
| 20260501181413 | 17 | 196 | 1.6 | 6.4 | 0.00 | 0.00 | 0.00 | 67 | 1017.1 |
| 20260501180416 | 17 | 110 | 1.6 | 8.0 | 0.00 | 0.00 | 0.00 | 65 | 1017.2 |
| 20260501175423 | 18 | 113 | 0.0 | 3.2 | 0.00 | 0.00 | 0.00 | 63 | 1017.0 |
| 20260501174422 | 19 | 116 | 1.6 | 4.8 | 0.00 | 0.00 | 0.00 | 62 | 1016.9 |
| 20260501173409 | 20 | 136 | 0.0 | 4.8 | 0.00 | 0.00 | 0.00 | 60 | 1017.0 |